Weather History for Middleton, WI

Change the Weather History Date:

Sunday, January 13, 2013

  Actual Average (KMSN) Record (KMSN)
Temperature  
Mean Temperature 18 °F 18 °F  
Max Temperature 23 °F 26 °F 53 °F (1961)
Min Temperature 13 °F 11 °F -22 °F (1916)
Degree Days  
Heating Degree Days 46 47  
Month to date heating degree days 600  
Since 1 July heating degree days 3479  
Cooling Degree Days 0 0  
Month to date cooling degree days 0  
Year to date cooling degree days 0  
Moisture  
Dew Point 8 °F    
Average Humidity 66    
Maximum Humidity 71    
Minimum Humidity 56    
Precipitation  
Precipitation 0.00 in 0.04 in 1.21 in (1910)
Month to date precipitation 0.53  
Year to date precipitation 0.53  
Snow  
Snow 0.00 in 0.40 in 7.30 in (1979)
Month to date snowfall 5.3  
Since 1 July snowfall 22.9  
Snow Depth -    
Sea Level Pressure  
Sea Level Pressure 30.03 in    
Wind  
Wind Speed 11 mph (WNW)    
Max Wind Speed 18 mph    
Max Gust Speed 23 mph    
Visibility 10 miles    
Events      
T = Trace of Precipitation, MM = Missing Value Source: NWS Daily Summary

Daily Weather History Graph

Daily Weather History Graph

Search for Another Location

Airport:

Trip Planner

Search our weather history database for the weather conditions in past years. The results will help you decide how hot, cold, wet, or windy it might be!

Date:

Astronomy

Jan. 13, 2013 Rise Set
Actual Time 7:27 AM CST 4:46 PM CST
Civil Twilight 6:56 AM CST 5:18 PM CST
Nautical Twilight 6:20 AM CST 5:53 PM CST
Astronomical Twilight 5:46 AM CST 6:27 PM CST
Moon 8:21 AM CST (1/13) 7:30 PM CST (1/13)
Length of Visible Light 10h 22m
Length of Day
9h 18m
Waxing Crescent, 5% of the Moon is Illuminated
Jan 13
Waxing Crescent
Jan 18
First Quarter
Jan 26
Full
Feb 3
Last Quarter
Feb 10
New

Hourly Weather History & Observations

Time (CST) Temp. Windchill Dew Point Humidity Pressure Visibility Wind Dir Wind Speed Gust Speed Precip Events Conditions
12:15 AM 23.0 °F 12.4 °F 13.6 °F 67% 29.94 in 10.0 mi NNW 10.4 mph - N/A   Overcast
12:35 AM 23.0 °F 11.7 °F 13.8 °F 68% 29.94 in 10.0 mi NW 11.5 mph - N/A   Overcast
12:55 AM 22.8 °F 10.9 °F 13.5 °F 67% 29.93 in 10.0 mi NNW 12.7 mph - N/A   Overcast
1:15 AM 22.5 °F 9.9 °F 12.7 °F 66% 29.94 in 10.0 mi NW 13.8 mph - N/A   Overcast
1:35 AM 22.3 °F 11.5 °F 12.9 °F 67% 29.91 in 10.0 mi NNW 10.4 mph - N/A   Overcast
1:55 AM 22.1 °F 11.3 °F 13.1 °F 68% 29.90 in 10.0 mi North 10.4 mph - N/A   Mostly Cloudy
2:15 AM 22.1 °F 12.0 °F 13.1 °F 68% 29.92 in 10.0 mi North 9.2 mph - N/A   Mostly Cloudy
2:35 AM 22.1 °F 11.3 °F 13.5 °F 69% 29.93 in 10.0 mi NNW 10.4 mph - N/A   Overcast
2:55 AM 21.9 °F 12.5 °F 13.5 °F 70% 29.94 in 10.0 mi NW 8.1 mph - N/A   Overcast
3:15 AM 21.6 °F 9.9 °F 12.9 °F 69% 29.96 in 10.0 mi NW 11.5 mph - N/A   Overcast
3:35 AM 21.0 °F 9.9 °F 12.2 °F 69% 29.95 in 10.0 mi NNW 10.4 mph - N/A   Overcast
3:55 AM 20.7 °F 10.2 °F 11.5 °F 68% 29.95 in 10.0 mi NW 9.2 mph - N/A   Overcast
4:15 AM 20.5 °F 10.8 °F 12.2 °F 70% 29.93 in 10.0 mi NNW 8.1 mph - N/A   Overcast
4:35 AM 20.3 °F 9.8 °F 11.8 °F 70% 29.93 in 10.0 mi NNW 9.2 mph - N/A   Overcast
4:55 AM 19.9 °F 10.1 °F 11.5 °F 70% 29.94 in 10.0 mi NW 8.1 mph - N/A   Overcast
5:15 AM 19.4 °F 10.4 °F 11.1 °F 70% 29.97 in 10.0 mi WNW 6.9 mph - N/A   Overcast
5:35 AM 19.4 °F 10.4 °F 11.1 °F 70% 29.99 in 10.0 mi WNW 6.9 mph - N/A   Overcast
5:55 AM 18.7 °F 8.6 °F 10.4 °F 70% 29.99 in 10.0 mi West 8.1 mph - N/A   Overcast
6:35 AM 18.5 °F 7.5 °F 10.2 °F 70% 29.99 in 10.0 mi WNW 9.2 mph - N/A   Overcast
6:55 AM 18.1 °F 8.9 °F 9.5 °F 69% 29.99 in 10.0 mi NW 6.9 mph - N/A   Overcast
7:15 AM 18.1 °F 7.1 °F 9.5 °F 69% 29.99 in 10.0 mi NW 9.2 mph - N/A   Overcast
7:35 AM 18.0 °F 6.9 °F 9.5 °F 70% 30.01 in 10.0 mi WNW 9.2 mph - N/A   Overcast
7:55 AM 17.6 °F 5.7 °F 9.3 °F 70% 30.03 in 10.0 mi WNW 10.4 mph - N/A   Overcast
8:15 AM 17.6 °F 5.0 °F 9.3 °F 70% 30.03 in 10.0 mi WNW 11.5 mph - N/A   Overcast
8:35 AM 17.6 °F 5.0 °F 9.5 °F 71% 30.03 in 10.0 mi WNW 11.5 mph - N/A   Overcast
9:15 AM 17.1 °F 5.8 °F 8.6 °F 69% 30.04 in 10.0 mi NW 9.2 mph - N/A   Overcast
9:55 AM 17.6 °F 7.3 °F 9.1 °F 69% 30.03 in 10.0 mi NNW 8.1 mph - N/A   Overcast
10:15 AM 18.0 °F 6.1 °F 10.0 °F 71% 30.01 in 10.0 mi NW 10.4 mph - N/A   Overcast
10:35 AM 17.4 °F 4.7 °F 9.3 °F 71% 30.00 in 10.0 mi NNW 11.5 mph - N/A   Overcast
11:15 AM 18.3 °F 8.2 °F 9.5 °F 68% 30.01 in 10.0 mi WNW 8.1 mph - N/A   Overcast
11:55 AM 20.1 °F 9.5 °F 9.1 °F 62% 30.00 in 10.0 mi West 9.2 mph - N/A   Overcast
12:15 PM 20.1 °F 7.5 °F 7.9 °F 59% 30.00 in 10.0 mi West 12.7 mph - N/A   Mostly Cloudy
12:35 PM 20.1 °F 8.1 °F 7.2 °F 57% 30.00 in 10.0 mi West 11.5 mph - N/A   Scattered Clouds
12:55 PM 21.0 °F 9.3 °F 7.7 °F 56% 30.00 in 10.0 mi West 11.5 mph 16.1 mph N/A   Clear
1:15 PM 20.5 °F 7.4 °F 7.7 °F 58% 29.99 in 10.0 mi WNW 13.8 mph - N/A   Clear
1:35 PM 21.0 °F 8.6 °F 8.4 °F 58% 29.99 in 10.0 mi WNW 12.7 mph 17.3 mph N/A   Clear
1:55 PM 21.0 °F 9.3 °F 8.8 °F 59% 29.99 in 10.0 mi WNW 11.5 mph - N/A   Mostly Cloudy
2:15 PM 20.7 °F 8.2 °F 7.5 °F 57% 30.00 in 10.0 mi WNW 12.7 mph - N/A   Mostly Cloudy
2:35 PM 20.1 °F 10.3 °F 7.3 °F 58% 30.00 in 10.0 mi WNW 8.1 mph 11.5 mph N/A   Scattered Clouds
2:55 PM 19.8 °F 9.1 °F 7.2 °F 58% 30.01 in 10.0 mi West 9.2 mph - N/A   Mostly Cloudy
3:15 PM 19.4 °F 8.6 °F 7.2 °F 59% 30.02 in 10.0 mi West 9.2 mph - N/A   Overcast
3:55 PM 18.3 °F 5.2 °F 7.2 °F 62% 30.03 in 10.0 mi West 12.7 mph 16.1 mph N/A   Overcast
4:15 PM 18.1 °F 5.0 °F 7.0 °F 62% 30.04 in 10.0 mi West 12.7 mph - N/A   Overcast
4:35 PM 17.6 °F 4.3 °F 7.2 °F 64% 30.05 in 10.0 mi WNW 12.7 mph - N/A   Overcast
4:55 PM 17.4 °F 4.7 °F 7.0 °F 64% 30.06 in 10.0 mi WNW 11.5 mph 17.3 mph N/A   Overcast
5:15 PM 16.7 °F 2.0 °F 6.1 °F 63% 30.07 in 10.0 mi West 15.0 mph - N/A   Overcast
5:35 PM 16.5 °F 0.3 °F 5.7 °F 63% 30.08 in 10.0 mi West 18.4 mph 21.9 mph N/A   Overcast
5:55 PM 15.8 °F 0.9 °F 5.2 °F 63% 30.10 in 10.0 mi WNW 15.0 mph - N/A   Overcast
6:15 PM 15.1 °F 1.8 °F 4.5 °F 63% 30.12 in 10.0 mi WNW 11.5 mph 21.9 mph N/A   Overcast
6:35 PM 14.7 °F -1.1 °F 4.3 °F 63% 30.12 in 10.0 mi West 16.1 mph 23.0 mph N/A   Overcast
6:55 PM 14.5 °F 0.5 °F 4.1 °F 63% 30.12 in 10.0 mi WNW 12.7 mph - N/A   Overcast
7:15 PM 14.4 °F 0.9 °F 4.3 °F 64% 30.12 in 10.0 mi WNW 11.5 mph - N/A   Overcast
7:35 PM 14.5 °F -1.3 °F 4.6 °F 65% 30.13 in 10.0 mi WNW 16.1 mph - N/A   Overcast
7:55 PM 14.7 °F 1.4 °F 4.3 °F 63% 30.14 in 10.0 mi West 11.5 mph 16.1 mph N/A   Overcast
8:15 PM 14.9 °F 1.6 °F 4.8 °F 64% 30.14 in 10.0 mi West 11.5 mph - N/A   Overcast
8:35 PM 14.9 °F 0.3 °F 5.0 °F 65% 30.14 in 10.0 mi WNW 13.8 mph 19.6 mph N/A   Overcast
8:55 PM 14.9 °F 1.6 °F 5.4 °F 66% 30.15 in 10.0 mi WNW 11.5 mph - N/A   Overcast
9:15 PM 14.9 °F -1.3 °F 4.6 °F 64% 30.16 in 10.0 mi West 17.3 mph 23.0 mph N/A   Overcast
9:35 PM 14.9 °F -0.8 °F 4.5 °F 63% 30.16 in 10.0 mi West 16.1 mph - N/A   Overcast
9:55 PM 14.9 °F 3.1 °F 5.0 °F 65% 30.17 in 10.0 mi West 9.2 mph 18.4 mph N/A   Overcast
10:15 PM 14.9 °F 1.6 °F 5.0 °F 65% 30.18 in 10.0 mi WNW 11.5 mph - N/A   Overcast
10:35 PM 14.5 °F -0.2 °F 5.4 °F 67% 30.17 in 10.0 mi WNW 13.8 mph - N/A   Overcast
10:55 PM 14.4 °F 1.6 °F 5.9 °F 69% 30.18 in 10.0 mi West 10.4 mph - N/A   Overcast
11:15 PM 14.4 °F 1.6 °F 5.7 °F 69% 30.18 in 10.0 mi WNW 10.4 mph - N/A   Overcast
11:35 PM 14.0 °F 2.0 °F 4.8 °F 67% 30.19 in 10.0 mi WNW 9.2 mph 17.3 mph N/A   Mostly Cloudy
11:55 PM 13.1 °F -0.7 °F 4.6 °F 69% 30.19 in 10.0 mi WNW 11.5 mph - N/A   Scattered Clouds